Weather History for Ishigakijima, Japan

Change the Weather History Date:

Monday, January 21, 2013

  Actual Average Record
Temperature  
Mean Temperature 72 °F -  
Max Temperature 77 °F 68 °F 77 °F (2013)
Min Temperature 69 °F 61 °F 55 °F (2014)
Cooling Degree Days 7    
Growing Degree Days 22 (Base 50)    
Moisture  
Dew Point 62 °F    
Average Humidity 68    
Maximum Humidity 83    
Minimum Humidity 55    
Precipitation  
Precipitation 0.00 in - - ()
Sea Level Pressure  
Sea Level Pressure 30.16 in    
Wind  
Wind Speed 12 mph ()    
Max Wind Speed 18 mph    
Max Gust Speed -    
Visibility 9.5 miles    
Events      
Averages and records for this station are not official NWS values.
T = Trace of Precipitation, MM = Missing Value Source: Averaged Metar Reports

Daily Weather History Graph

Daily Weather History Graph

Search for Another Location

Airport:

Trip Planner

Search our weather history database for the weather conditions in past years. The results will help you decide how hot, cold, wet, or windy it might be!

Date:

Astronomy

Jan. 21, 2013 Rise Set
Actual Time 7:28 AM JST 6:21 PM JST
Civil Twilight 7:04 AM JST 6:45 PM JST
Nautical Twilight 6:36 AM JST 7:12 PM JST
Astronomical Twilight 6:09 AM JST 7:40 PM JST
Moon 1:37 PM JST (1/21) 2:25 AM JST (1/21)
Length of Visible Light 11h 41m
Length of Day
10h 52m
Waxing Gibbous, 70% of the Moon is Illuminated
Jan 21
Waxing Gibbous
Jan 27
Full
Feb 3
Last Quarter
Feb 10
New
Feb 18
First Quarter

Hourly Weather History & Observations

Time (JST) Temp. Dew Point Humidity Pressure Visibility Wind Dir Wind Speed Gust Speed Precip Events Conditions
12:00 AM 70 °F 60 °F 64% 30.22 in - ESE 17.3 mph - -  
3:00 AM 70 °F 61 °F 66% 30.19 in 19 mi SE 18.4 mph - -   Mostly Cloudy
6:00 AM 71 °F 61 °F 63% 30.17 in 19 mi SE 17.3 mph - -   Mostly Cloudy
6:00 AM 69.8 °F 60.8 °F 73% 30.15 in 6.2 mi SE 12.7 mph - N/A   Mostly Cloudy
7:00 AM 69.8 °F 60.8 °F 73% 30.15 in 6.2 mi SSE 13.8 mph - N/A   Mostly Cloudy
8:00 AM 71.6 °F 60.8 °F 69% 30.18 in 6.2 mi SSE 13.8 mph - N/A   Mostly Cloudy
9:00 AM 72 °F 61 °F 61% 30.20 in 16 mi SE 18.4 mph - -   Scattered Clouds
9:00 AM 71.6 °F 60.8 °F 69% 30.18 in 6.2 mi SSE 13.8 mph - N/A   Mostly Cloudy
10:00 AM 73.4 °F 60.8 °F 65% 30.18 in 6.2 mi SSE 13.8 mph - N/A   Mostly Cloudy
11:00 AM 73.4 °F 62.6 °F 69% 30.21 in 6.2 mi SSE 12.7 mph - N/A   Mostly Cloudy
12:00 PM 75 °F 62 °F 55% 30.20 in 19 mi SSE 16.1 mph - -   Mostly Cloudy
12:00 PM 73.4 °F 60.8 °F 65% 30.18 in 6.2 mi SSE 11.5 mph - N/A   Mostly Cloudy
1:00 PM 75.2 °F 62.6 °F 65% 30.15 in 6.2 mi SSE 12.7 mph - N/A   Mostly Cloudy
2:00 PM 75.2 °F 60.8 °F 61% 30.12 in 6.2 mi SSE 11.5 mph - N/A   Mostly Cloudy
3:00 PM 75 °F 64 °F 59% 30.13 in 19 mi SSE 11.5 mph - -   Scattered Clouds
3:00 PM 73.4 °F 62.6 °F 69% 30.12 in 6.2 mi SSE 11.5 mph - N/A   Mostly Cloudy
4:00 PM 73.4 °F 62.6 °F 69% 30.09 in 6.2 mi South 9.2 mph - N/A   Mostly Cloudy
5:00 PM 73.4 °F 62.6 °F 69% 30.12 in 6.2 mi South 8.1 mph - N/A   Mostly Cloudy
6:00 PM 73 °F 64 °F 65% 30.14 in 16 mi South 11.5 mph - -   Scattered Clouds
6:00 PM 71.6 °F 62.6 °F 73% 30.12 in 6.2 mi South 6.9 mph - N/A   Mostly Cloudy
7:00 PM 71.6 °F 64.4 °F 78% 30.12 in 6.2 mi South 6.9 mph - N/A   Mostly Cloudy
8:00 PM 69.8 °F 64.4 °F 83% 30.12 in 6.2 mi SSE 8.1 mph - N/A   Mostly Cloudy
9:00 PM 71 °F 65 °F 74% 30.15 in 9 mi SSE 11.5 mph - -   Partly Cloudy